Location: Helion Bumpstead
(52.0500°N, 0.4000°E)
Time: 08:07:48
(UTC+00:00)

Cosmos 371 Rocket - Pass Details

Date: 15 November 2025
Orbit: 674 x 690 km, 74.0° (Epoch: 14 December)

Event Time Altitude Azimuth Distance (km) Brightness Sun altitude
Exits shadow 05:50:17 20° 289° (WNW) 1,577 4.5 -13.4°
Maximum altitude 05:51:53 24° 260° (W) 1,423 4.4 -13.2°
Drops below altitude 10° 05:55:42 10° 208° (SSW) 2,139 5.7 -12.6°
Sets 05:58:22 0° 194° (SSW) 3,049 6.6 -12.2°
